Location: Vesunti
(61.5000°N, 22.8333°E)
Time: 09:07:28
(UTC+00:00)

Cosmos 1980 Rocket - Pass Details

Date: 17 February 2020
Orbit: 831 x 848 km, 71.0° (Epoch: 10 April)

Event Time Altitude Azimuth Distance (km) Brightness Sun altitude
Exits shadow 01:09:03 38° 8° (N) 1,259 3.3 -34.1°
Drops below altitude 10° 01:13:05 10° 45° (NE) 2,455 5.4 -33.8°
Sets 01:15:39 0° 52° (NE) 3,389 6.4 -33.5°
